Skip Page Navigation
NASA JPL Caltech
NASA Logo - Jet Propulsion Laboratory + View the NASA Portal
+ Center for Near-Earth Object Studies
JPL Home Earth Solar System Stars & Galaxies Technology
JPL Solar System Dynamics
BODIES ORBITS EPHEMERIDES TOOLS PHYSICAL DATA DISCOVERY FAQ SITE MAP
IMPORTANT: The SSD Announcement email list is now available. Major changes are coming in the near future, including possible hostname and/or URL changes. To be notified of such changes, subscribe to this email list.

Please visit this page for more details.


JPL Small-Body Database Browser
Search: [ help ]  
487100 (2014 OO140)
Classification: Main-belt Asteroid          SPK-ID: 2487100
Ephemeris | Orbit Diagram | Orbital Elements | Mission Design | Physical Parameters | Discovery Circumstances ]

[ show orbit diagram ]
Orbital Elements at Epoch 2459000.5 (2020-May-31.0) TDB
Reference: JPL 15 (heliocentric ecliptic J2000)
 Element Value Uncertainty (1-sigma)   Units 
e .08991980130251474 7.6102e-08  
a 2.616883368254965 4.3831e-08 au
q 2.381573735749623 2.2217e-07 au
i 11.34707492249979 9.2111e-06 deg
node 121.1266046132889 3.238e-05 deg
peri 73.12068185214767 5.9677e-05 deg
M 239.287517514158 5.3066e-05 deg
tp 2459518.971224831554
(2021-Oct-31.47122483)
0.00023447 TDB
period 1546.233140895358
4.23
3.8848e-05
1.064e-07
d
yr
n .2328238804864442 5.8495e-09 deg/d
Q 2.852193000760307 4.7772e-08 au
  Orbit Determination Parameters
   # obs. used (total)      81  
   data-arc span      5230 days (14.32 yr)  
   first obs. used      2005-06-01  
   last obs. used      2019-09-26  
   planetary ephem.      DE431  
   SB-pert. ephem.      SB431-N16  
   condition code      0  
   norm. resid. RMS      .6786  
   source      ORB  
   producer      Otto Matic  
   solution date      2019-Nov-08 18:43:29  

Additional Information
 Earth MOID = 1.41174 au 
 Jupiter MOID = 2.18706 au 
 T_jup = 3.373 
[ show covariance matrix ]

Ephemeris | Orbit Diagram | Orbital Elements | Mission Design | Physical Parameters | Discovery Circumstances ]

Physical Parameter Table
Parameter Symbol Value Units Sigma Reference Notes
absolute magnitude H 17.5   n/a MPO495386  

487100 (2014 OO140)          Discovered 2005-Jun-01 by Mt. Lemmon Survey at Mount Lemmon
Reference: Last Updated: 2017-03-14

Alternate Designations
 2014 OO140 = 2013 FU10 
Ephemeris | Orbit Diagram | Orbital Elements | Mission Design | Physical Parameters | Discovery Circumstances ]
ABOUT SSD CREDITS/AWARDS PRIVACY/COPYRIGHT GLOSSARY LINKS
FirstGov 2020-May-29 21:17 UT
(server date/time)  
NASA Home Page
Site Manager:   Ryan S. Park
Webmaster  Alan B. Chamberlin